Overview Statistics Trail Chart Weather Telemetry Raw packets
 

This is the latest recevied weather packets stored in our database for station/object DC9VQ-13. If no packets are shown the sender has not sent any weather packets the latest 10 day(s).

<< 1 2 3 4 5 >>
Time Temp. Humidity Pressure Rain* Wind** Luminosity Snow
1788630072 23.33° C 48% 1024.4 hPa 0 mm - - -
1788629471 23.89° C 47% 1024.3 hPa 0 mm - - -
1788628870 24.44° C 47% 1024.2 hPa 0 mm - - -
1788628267 25° C 45% 1024.1 hPa 0 mm - - -
1788627665 25.56° C 45% 1024.1 hPa 0 mm - - -
1788627063 25.56° C 44% 1024 hPa 0 mm - - -
1788626461 26.11° C 43% 1023.8 hPa 0 mm - - -
1788625859 26.67° C 42% 1023.7 hPa 0 mm - - -
1788625257 26.67° C 43% 1023.5 hPa 0 mm - - -
1788624655 26.11° C 42% 1023.4 hPa 0 mm - - -
1788624053 26.11° C 44% 1023.4 hPa 0 mm - - -
1788623451 26.11° C 43% 1023.4 hPa 0 mm - - -
1788622849 26.11° C 44% 1023.3 hPa 0 mm - - -
1788622247 25.56° C 44% 1023.2 hPa 0 mm - - -
1788621645 25.56° C 43% 1023.1 hPa 0 mm - - -
1788621043 25.56° C 44% 1023.1 hPa 0 mm - - -
1788620441 25.56° C 45% 1023 hPa 0 mm - - -
1788619838 25° C 47% 1023.1 hPa 0 mm - - -
1788619237 24.44° C 46% 1023.1 hPa 0 mm - - -
1788618635 23.89° C 47% 1023.1 hPa 0 mm - - -
1788618033 23.33° C 49% 1023 hPa 0 mm - - -
1788617431 23.33° C 50% 1022.9 hPa 0 mm - - -
1788616845 22.78° C 51% 1023 hPa 0 mm - - -
1788616227 22.78° C 51% 1023 hPa 0 mm - - -
1788615625 22.78° C 51% 1023 hPa 0 mm - - -

* Rain latest hour (hover to see other rain measurements)
** Current wind speed in m/s (hover to see current wind gust speed)